Flag for Malaysia Weather past 2 weeks in Kuala Lumpur, Malaysia

Now
82 °F

Broken clouds.


Feels Like: 89 °F
Forecast: 75 / 90 °F
Wind: 6 mph from Southeast

Location: Sultan Abdul Aziz Shah-Subang

Current Time: Dec 20, 2014 at 4:45:40 PM

Latest Report: Dec 20, 2014 at 4:00 PM


Visibility: N/A

Pressure: 29.74 "Hg

Humidity: 79%

Dew point: 75 °F

Location of Kuala LumpurLocation

Historic Weather in Kuala Lumpur — Graph

°F

Kuala Lumpur temperature yesterday

Maximum temperature yesterday: 88 °F (at 2:00 PM)
Minimum temperature yesterday: 79 °F (at 2:00 AM)
Average temperature yesterday: 82 °F

Past Weeks' High & Low Weather Summary

 TemperatureHumidityPressure
High93 °F (Dec 9, 1:00 PM)100% (Dec 11, 8:00 AM)29.95 "Hg (Dec 11, 8:00 AM)
Low75 °F (Dec 10, 11:00 PM)53% (Dec 9, 1:00 PM)29.74 "Hg (Dec 7, 3:00 PM)
Average82 °F83%29.84 "Hg
* Reported Dec 5 3:00 PM — Dec 20 3:00 PM, Kuala Lumpur, Weather by CustomWeather, © 2014

Note: Actual official high and low records may vary slightly from our data, if they occured in-between our weather recording intervals... More about our weather records

Advertising

Kuala Lumpur weather history for previous 24 hours

 ConditionsComfort  
Time TempWeatherWind HumidityBarometerVisibility
3:00 PM
Dec 20
88 °FBroken clouds.6 mph66%29.77 "HgN/A
2:00 PM90 °FBroken clouds.10 mph63%29.80 "HgN/A
1:00 PM90 °FBroken clouds.7 mph59%29.80 "HgN/A
12:00 PM88 °FBroken clouds.5 mph70%29.83 "HgN/A
11:00 AM86 °FBroken clouds.5 mph75%29.86 "HgN/A
10:00 AM84 °FBroken clouds.2 mph79%29.86 "HgN/A
9:00 AM81 °FPartly sunny.2 mph89%29.83 "Hg5 mi
8:00 AM79 °FPartly cloudy.1 mph94%29.80 "Hg3 mi
7:00 AM79 °FPassing clouds.1 mph89%29.80 "Hg2 mi
6:00 AM79 °FPassing clouds.2 mph94%29.80 "Hg2 mi
5:00 AM79 °FPassing clouds.3 mph89%29.80 "Hg2 mi
4:00 AM79 °FPassing clouds.3 mph94%29.80 "Hg2 mi
3:00 AM79 °FPartly cloudy.2 mph94%29.80 "Hg3 mi
2:00 AM79 °FPartly cloudy.2 mph94%29.86 "Hg2 mi
1:00 AM79 °FPassing clouds.2 mph94%29.86 "Hg2 mi
12:00 AM81 °FPassing clouds.1 mph89%29.89 "Hg2 mi
11:00 PM
Dec 19
81 °FPartly cloudy.1 mph89%29.89 "Hg3 mi
10:00 PM81 °FPartly cloudy.1 mph84%29.89 "Hg4 mi
9:00 PM81 °FPartly cloudy.5 mph84%29.86 "Hg4 mi
8:00 PM81 °FBroken clouds.3 mph89%29.86 "Hg4 mi
7:00 PM81 °FBroken clouds.3 mph89%29.83 "Hg5 mi
6:00 PM82 °FBroken clouds.6 mph84%29.83 "Hg5 mi
5:00 PM86 °FBroken clouds.8 mph70%29.80 "Hg6 mi
4:00 PM86 °FBroken clouds.8 mph75%29.80 "HgN/A
Weather by CustomWeather, © 2014

See weather overviewHow to use our weather pages